If you wish to contribute or participate in the discussions about articles you are invited to join SKYbrary as a registered user

 Actions

Istanbul Airport

From SKYbrary Wiki

LTFM /
Revision as of 07:06, 1 July 2020 by Admin (talk | contribs) (Text replacement - "{{Show_Airportmaps}} " to "{{ShowAirportMap|TerrainZoom=10|AirportLayoutZoom=13}} ")
(diff) ← Older revision | Latest revision (diff) | Newer revision → (diff)
Airport
ICAO: LTFM – IATA: IST
Summary
Name Istanbul Airport
Region Europe
Territory Turkey TR.gif
Location Arnavutkoy, Istanbul
Serving Istanbul
Elevation 99.06 m
325 ft99.06 m
Coordinates 41° 15' 41.47" N, 28° 44' 33.79" E
Runways
Designator Length Width Surface ROPS


METAR
Observation LTFM 220650Z 06015KT 9999 SCT032 22/14 Q1020 NOSIG
Station Istanbul New Airport
Date/Time 22 September 2020 06:50:00
Wind direction 60°
Wind speed 15 kts
Lowest cloud amount scattered clouds
Temperature 22°C
Dew point 14°C
Humidity 60%
QNH 1020 hPa
Weather condition n/a

Istanbul Airport is the main international airport serving Istanbul, Turkey. It is located in the Arnavutköy district on the European side of the city.

Climatology

Dry-summer subtropical ”Mediterranean" climate (Köppen climate classification Csa)

Maps

Terrain

Loading map...

Airport Layout

Loading map...


Accidents & Serious Incidents at or in vicinity of LTFM

None on SKYbrary